Tracking 35280 objects as of 7-Sep-2026
HD Live streaming from Space Station
objects crossing your sky now

CZ-3C DEB

Track CZ-3C DEB now!


NORAD ID: 40868
Int'l Code: 2012-008AJ
Launch date: February 24, 2012
Source: People's Republic of China (PRC)
Launch site: Xichang Space Center, China (XSC)

Note: This is SATELLITE DEBRIS
Your satellite tracking list
Your tracking list is empty




NASA's NSSDC Master Catalog

Two Line Element Set (TLE):
1 40868U 12008AJ  26115.53903830 -.00000121  00000-0  00000+0 0  9997
2 40868  21.6021 284.9567 6808867  55.2359 351.3138  2.28133126    16
Source of the keplerian elements: AFSPC